TimeEDT,TemperatureF,Dew PointF,Humidity,Sea Level PressureIn,VisibilityMPH,Wind Direction,Wind SpeedMPH,Gust SpeedMPH,PrecipitationIn,Events,Conditions,WindDirDegrees,DateUTC
12:56 AM,34.0,19.0,54,29.86,10.0,NW,17.3,31.1,N/A,,Scattered Clouds,310,2013-03-23 04:56:00
1:56 AM,34.0,18.0,52,29.86,10.0,WNW,11.5,23.0,N/A,,Scattered Clouds,300,2013-03-23 05:56:00
2:56 AM,33.1,18.0,54,29.85,10.0,West,5.8,-,N/A,,Partly Cloudy,280,2013-03-23 06:56:00
3:56 AM,32.0,18.0,56,29.84,10.0,West,8.1,-,N/A,,Clear,280,2013-03-23 07:56:00
4:56 AM,33.1,17.1,52,29.84,10.0,West,11.5,-,N/A,,Scattered Clouds,280,2013-03-23 08:56:00
5:56 AM,32.0,17.1,54,29.85,10.0,West,10.4,-,N/A,,Clear,280,2013-03-23 09:56:00
6:56 AM,32.0,18.0,56,29.85,10.0,West,10.4,20.7,N/A,,Partly Cloudy,270,2013-03-23 10:56:00
7:56 AM,34.0,18.0,52,29.86,10.0,West,13.8,20.7,N/A,,Scattered Clouds,280,2013-03-23 11:56:00
8:56 AM,36.0,19.0,50,29.84,10.0,WNW,20.7,27.6,N/A,,Scattered Clouds,300,2013-03-23 12:56:00
9:56 AM,37.0,19.0,48,29.84,10.0,WNW,19.6,26.5,N/A,,Partly Cloudy,300,2013-03-23 13:56:00
10:56 AM,37.9,19.0,47,29.85,10.0,NW,17.3,-,N/A,,Mostly Cloudy,310,2013-03-23 14:56:00
11:56 AM,39.0,19.9,46,29.85,10.0,NW,13.8,-,N/A,,Mostly Cloudy,310,2013-03-23 15:56:00
12:56 PM,42.1,19.9,41,29.84,10.0,WNW,17.3,25.3,N/A,,Mostly Cloudy,290,2013-03-23 16:56:00
1:56 PM,41.0,18.0,40,29.83,10.0,NW,21.9,29.9,N/A,,Mostly Cloudy,310,2013-03-23 17:56:00
2:56 PM,43.0,17.1,35,29.81,10.0,West,15.0,27.6,N/A,,Mostly Cloudy,280,2013-03-23 18:56:00
3:56 PM,43.0,16.0,34,29.80,10.0,WNW,20.7,32.2,N/A,,Mostly Cloudy,290,2013-03-23 19:56:00
4:56 PM,42.1,16.0,35,29.81,10.0,WNW,25.3,33.4,N/A,,Mostly Cloudy,300,2013-03-23 20:56:00
5:56 PM,42.1,17.1,37,29.82,10.0,WNW,20.7,29.9,N/A,,Scattered Clouds,300,2013-03-23 21:56:00
6:56 PM,39.9,16.0,38,29.83,10.0,WNW,20.7,36.8,N/A,,Scattered Clouds,290,2013-03-23 22:56:00
7:56 PM,37.9,16.0,41,29.86,10.0,WNW,19.6,32.2,N/A,,Partly Cloudy,300,2013-03-23 23:56:00
8:56 PM,37.9,16.0,41,29.88,10.0,WNW,24.2,32.2,N/A,,Clear,300,2013-03-24 00:56:00
9:56 PM,36.0,17.1,46,29.90,10.0,NW,18.4,26.5,N/A,,Scattered Clouds,310,2013-03-24 01:56:00
10:56 PM,35.1,17.1,48,29.90,10.0,NW,13.8,26.5,N/A,,Scattered Clouds,310,2013-03-24 02:56:00
11:56 PM,34.0,16.0,48,29.92,10.0,NW,11.5,-,N/A,,Partly Cloudy,320,2013-03-24 03:56:00